FW3734 Weather Reports


time (UTC)temp
C
wind
direction
speed
KPH
gust
KPH
rain 1hr
cm
rain 24hr
cm
rain mn
cm
humidity
%
barometer
mb
20260904044546 30 221 0.0 0.0 0.00 0.00 0.00 66 1012.6
20260904043038 30 179 0.0 0.0 0.00 0.00 0.00 65 1012.6
20260904041535 30 271 0.0 0.0 0.00 0.00 0.00 64 1012.6
20260904040036 30 149 0.0 0.0 0.00 0.00 0.00 64 1012.6
20260904034536 30 152 0.0 1.6 0.00 0.00 0.00 63 1012.7
20260904033038 31 213 0.0 1.6 0.00 0.00 0.00 63 1012.6
20260904031533 31 150 0.0 3.2 0.00 0.00 0.00 62 1012.5
20260904030033 31 252 0.0 1.6 0.00 0.00 0.00 62 1012.6
20260904024533 31 178 0.0 1.6 0.00 0.00 0.00 61 1012.4
20260904023032 31 140 0.0 4.8 0.00 0.00 0.00 59 1012.4
20260904021533 31 153 0.0 1.6 0.00 0.00 0.00 58 1012.2
20260904020031 31 128 0.0 0.0 0.00 0.00 0.00 58 1012.0
20260904014531 31 255 0.0 0.0 0.00 0.00 0.00 57 1012.0
20260904013034 32 255 0.0 1.6 0.00 0.00 0.00 56 1011.9
20260904011538 32 255 0.0 0.0 0.00 0.00 0.00 54 1011.7
20260904010043 33 255 0.0 0.0 0.00 0.00 0.00 52 1011.6
20260904004531 33 255 0.0 0.0 0.00 0.00 0.00 50 1011.4
20260904003032 34 255 0.0 0.0 0.00 0.00 0.00 49 1011.4
20260904001528 35 255 0.0 1.6 0.00 0.00 0.00 48 1011.3
20260904000027 35 255 0.0 0.0 0.00 0.00 0.00 47 1011.3
20260903234534 35 146 0.0 3.2 0.00 0.00 0.00 46 1011.2
20260903233026 35 282 0.0 6.4 0.00 0.00 0.00 45 1011.2
20260903231526 35 173 0.0 4.8 0.00 0.00 0.00 43 1011.2
20260903230026 36 176 0.0 0.0 0.00 0.00 0.00 44 1011.2
20260903224527 36 205 0.0 0.0 0.00 0.00 0.00 43 1011.2
20260903223034 36 186 0.0 4.8 0.00 0.00 0.00 43 1011.3
20260903221524 36 195 0.0 0.0 0.00 0.00 0.00 42 1011.2
20260903220035 36 206 0.0 0.0 0.00 0.00 0.00 44 1011.2
20260903214522 36 225 0.0 6.4 0.00 0.00 0.00 44 1011.2
20260903213032 36 140 0.0 3.2 0.00 0.00 0.00 44 1011.4
20260903211551 36 131 0.0 8.0 0.00 0.00 0.00 41 1011.5
20260903210017 36 53 0.0 3.2 0.00 0.00 0.00 41 1011.6
20260903204515 36 141 0.0 8.0 0.00 0.00 0.00 43 1011.7
20260903203014 36 229 0.0 3.2 0.00 0.00 0.00 43 1011.9
20260903201511 36 235 0.0 4.8 0.00 0.00 0.00 44 1012.1
20260903200007 36 199 0.0 3.2 0.00 0.00 0.00 45 1012.1
20260903194505 35 248 0.0 0.0 0.00 0.00 0.00 45 1012.3
20260903193002 36 229 0.0 4.8 0.00 0.00 0.00 45 1012.6
20260903191600 35 273 1.6 12.9 0.00 0.00 0.00 45 1012.9
20260903190059 35 258 0.0 0.0 0.00 0.00 0.00 49 1012.9
20260903184602 35 327 0.0 19.3 0.00 0.00 0.00 47 1013.1
20260903183051 35 198 0.0 6.4 0.00 0.00 0.00 48 1013.2
20260903181547 35 227 0.0 3.2 0.00 0.00 0.00 48 1013.5
20260903180044 34 202 1.6 14.5 0.00 0.00 0.00 48 1013.7
20260903174600 34 244 0.0 8.0 0.00 0.00 0.00 50 1013.9
20260903173044 34 289 0.0 20.9 0.00 0.00 0.00 50 1014.0
20260903171540 34 294 0.0 20.9 0.00 0.00 0.00 51 1014.0
20260903170100 34 234 0.0 14.5 0.00 0.00 0.00 52 1014.2
20260903164541 33 196 0.0 1.6 0.00 0.00 0.00 53 1014.3
20260903163032 33 152 0.0 1.6 0.00 0.00 0.00 53 1014.5
20260903161528 33 335 0.0 11.3 0.00 0.00 0.00 55 1014.4
20260903160030 32 261 1.6 12.9 0.00 0.00 0.00 55 1014.5
20260903154523 32 245 0.0 8.0 0.00 0.00 0.00 59 1014.5
20260903153020 32 168 0.0 4.8 0.00 0.00 0.00 61 1014.5
20260903151518 31 295 0.0 8.0 0.00 0.00 0.00 62 1014.6
20260903150023 31 199 0.0 9.7 0.00 0.00 0.00 63 1014.5
20260903144513 31 190 0.0 4.8 0.00 0.00 0.00 64 1014.5
20260903143011 30 202 0.0 11.3 0.00 0.00 0.00 65 1014.6
20260903141507 30 210 0.0 1.6 0.00 0.00 0.00 67 1014.6
20260903140003 29 240 0.0 4.8 0.00 0.00 0.00 69 1014.6
20260903134502 28 205 0.0 1.6 0.00 0.00 0.00 70 1014.5
20260903133003 28 269 0.0 0.0 0.00 0.00 0.00 71 1014.6
20260903131602 27 155 0.0 0.0 0.00 0.00 0.00 72 1014.5
20260903130115 27 155 0.0 0.0 0.00 0.00 0.00 73 1014.5
20260903124607 27 155 0.0 0.0 0.00 0.00 0.00 74 1014.4
20260903123059 26 155 0.0 0.0 0.00 0.00 0.00 75 1014.5
20260903121558 26 155 0.0 0.0 0.00 0.00 0.00 75 1014.3
20260903120055 26 155 0.0 0.0 0.00 0.00 0.00 74 1014.2
20260903114554 26 155 0.0 0.0 0.00 0.00 0.00 74 1014.1
20260903113055 26 153 0.0 0.0 0.00 0.00 0.00 74 1014.1
20260903111621 26 211 0.0 0.0 0.00 0.00 0.00 73 1014.0
20260903104649 26 211 0.0 0.0 0.00 0.00 0.00 72 1013.8
20260903103047 27 211 0.0 0.0 0.00 0.00 0.00 71 1013.7
20260903101548 27 211 0.0 0.0 0.00 0.00 0.00 71 1013.6
20260903100044 27 211 0.0 0.0 0.00 0.00 0.00 70 1013.6
20260903094547 27 211 0.0 0.0 0.00 0.00 0.00 71 1013.6
20260903093045 27 175 0.0 0.0 0.00 0.00 0.00 70 1013.6
20260903091540 27 175 0.0 0.0 0.00 0.00 0.00 69 1013.6
20260903090044 27 175 0.0 0.0 0.00 0.00 0.00 69 1013.6
20260903084538 27 175 0.0 0.0 0.00 0.00 0.00 68 1013.6
20260903083036 27 175 0.0 0.0 0.00 0.00 0.00 68 1013.6
20260903081535 27 157 0.0 0.0 0.00 0.00 0.00 69 1013.5
20260903080025 27 157 0.0 0.0 0.00 0.00 0.00 69 1013.5
20260903074524 27 157 0.0 0.0 0.00 0.00 0.00 69 1013.4
20260903073036 27 157 0.0 0.0 0.00 0.00 0.00 69 1013.4
20260903071522 27 157 0.0 0.0 0.00 0.00 0.00 69 1013.4
20260903070031 28 157 0.0 0.0 0.00 0.00 0.00 69 1013.5
20260903064519 28 157 0.0 0.0 0.00 0.00 0.00 68 1013.5
20260903063018 28 156 0.0 0.0 0.00 0.00 0.00 68 1013.5
20260903061530 28 156 0.0 0.0 0.00 0.00 0.00 67 1013.5
20260903060013 28 155 0.0 0.0 0.00 0.00 0.00 67 1013.5
20260903054514 28 148 0.0 0.0 0.00 0.00 0.00 67 1013.5
20260903053011 28 148 0.0 0.0 0.00 0.00 0.00 67 1013.5
20260903051508 29 212 0.0 0.0 0.00 0.00 0.00 67 1013.6
20260903050008 29 212 0.0 0.0 0.00 0.00 0.00 66 1013.5